User: anonymous   Login
Location: NJAA Observatory
(40.6819°N, 74.8979°W)
Time: 10:39:04
(UTC-04:00)
Language:

Cosmos 2237 Rocket - Orbit

View from above orbital plane
View from above orbital plane
View from above satellite
View from above satellite

Ground track
Ground track

The orbit data is extracted from the following two-line orbital elements,

1 22566U 93016B   16180.87067775 -.00000080  00000-0 -16650-4 0  9995
2 22566  71.0079  88.5484 0012001 304.1229  55.8754 14.14925014201298
Epoch (UTC): 28 June 2016 20:53:46
Eccentricity: 0.0012001
inclination: 71.0079°
perigee height: 834 km
apogee height: 851 km
right ascension of ascending node: 88.5484°
argument of perigee: 304.1229°
revolutions per day: 14.14925014
mean anomaly at epoch: 55.8754°
orbit number at epoch: 20129

The dashed part of the orbit path shows where the satellite is in the earth's shadow,  

DLR